Wind_Speed
4 5 6 10 8 8 17 17 5 7 6 5 13 7 5 10 5 3 1 13 24 25 27 28 27 28 32 32 29 26 23 21 19 21 21 24 27 28 27 26 26 25 25 23 23 22 22 21 22
3 7 8 14 8 13 12 15 4 8 10 5 6 11 8 11 13 3 2 14 27 31 29 30 29 30 32 31 29 27 24 22 23 23 24 27 29 28 27 26 26 24 23 23 21 22 21 20 20
4 8 15 9 12 14 9 8 7 8 5 10 4 5 5 4 6 9 8 20 25 31 29 32 31 31 32 31 29 26 23 24 26 26 28 30 30 29 27 26 25 24 22 22 21 20 20 18 19
5 11 11 9 15 7 11 9 4 10 8 5 2 7 6 3 14 18 13 17 26 37 35 33 35 33 33 32 28 25 24 27 28 30 31 30 30 28 27 26 25 24 22 21 20 19 17 16 17
7 11 9 13 10 6 5 5 7 9 7 6 8 7 7 3 5 11 21 21 32 31 35 32 33 33 33 30 27 26 28 28 31 31 32 30 28 27 27 26 24 23 22 20 18 17 15 14 16
15 5 11 8 5 3 5 5 7 5 6 4 10 10 2 8 9 11 13 11 20 28 30 35 33 33 31 29 28 28 30 29 31 32 31 30 29 28 26 25 23 22 20 18 16 15 14 13 13
13 8 9 4 2 14 7 4 6 4 4 9 15 6 3 5 6 8 10 15 20 25 28 32 31 29 31 29 29 31 31 33 31 32 30 29 27 26 24 23 22 19 17 15 14 13 13 11 12
10 6 7 3 4 5 9 5 4 7 5 13 6 4 5 12 9 10 11 17 22 23 29 32 33 31 29 27 30 32 33 31 31 29 28 26 25 24 22 20 18 16 14 12 12 11 11 10 10
7 10 1 5 10 12 9 10 5 3 6 2 10 8 5 14 11 9 10 18 23 23 30 33 32 30 28 27 25 26 30 30 28 25 24 24 23 19 17 16 16 14 12 10 10 9 10 8 10
12 10 3 5 6 10 11 8 7 6 10 7 9 13 15 14 13 9 11 14 18 27 31 32 35 36 39 36 33 29 31 33 27 25 23 16 19 13 15 15 13 11 10 9 8 8 10 13 9
7 9 9 8 9 9 4 8 4 11 8 28 9 14 16 14 12 11 16 16 17 28 34 39 46 48 46 44 42 40 33 27 23 23 18 21 16 14 14 15 13 12 10 9 7 8 6 4 4
10 5 6 8 7 3 3 1 4 11 7 6 8 11 14 13 10 10 14 19 24 25 29 32 34 39 41 35 37 30 25 27 24 20 15 14 17 12 9 9 11 12 10 9 7 5 0 2 3
10 8 8 8 3 3 1 8 1 7 9 12 11 9 8 9 11 9 14 19 21 31 29 31 36 40 37 34 30 28 24 27 23 22 16 17 9 11 11 12 11 10 11 8 7 3 3 1 2
6 11 13 5 5 5 2 4 8 9 11 12 9 11 9 11 12 15 13 17 20 29 32 32 32 32 34 35 33 33 29 27 32 18 22 14 14 15 13 13 11 10 9 8 6 6 3 3 2
12 13 10 10 8 6 6 18 5 14 13 12 11 12 18 19 13 12 13 14 16 22 30 30 26 22 32 34 30 34 30 17 14 15 15 14 14 15 12 11 11 10 10 10 11 7 5 4 4
14 13 4 14 8 7 18 12 13 14 13 14 17 19 15 13 15 14 15 17 21 20 27 25 27 24 27 31 25 19 21 19 18 17 22 18 15 16 13 11 11 11 10 9 8 6 5 5 5
13 11 11 17 7 9 10 19 17 14 12 13 15 15 14 16 15 16 17 19 18 22 27 24 23 25 27 22 19 16 15 19 16 18 19 17 16 15 14 11 12 13 10 10 9 8 8 6 5
10 14 10 5 8 9 8 5 15 14 11 14 16 14 14 15 14 18 20 18 21 23 26 24 22 26 28 23 17 17 17 18 18 20 17 16 16 16 14 13 14 13 11 10 11 10 7 7 6
10 8 12 10 14 8 8 14 5 15 12 12 14 16 15 15 16 19 19 21 21 23 24 24 24 23 20 19 19 19 19 19 21 20 17 17 16 16 16 13 16 15 13 13 14 10 10 7 7
11 12 13 5 4 5 9 11 15 13 13 16 16 18 18 17 19 20 22 23 24 24 23 24 23 22 22 19 19 20 20 20 20 19 18 20 18 18 18 18 16 17 15 17 16 14 10 8 8
13 16 3 7 4 10 11 12 10 10 14 15 16 17 19 21 23 23 25 26 26 27 28 27 25 24 23 22 20 19 19 20 20 19 18 20 23 22 20 19 18 19 18 18 19 18 14 10 9
15 12 5 4 8 5 10 1 12 14 14 15 18 17 19 22 24 25 27 28 29 28 27 27 26 26 25 25 23 24 23 23 22 21 22 24 27 25 20 20 21 21 19 17 19 17 14 14 8
8 10 7 12 12 7 8 8 6 9 12 16 19 22 22 23 25 27 29 30 30 30 30 29 28 28 27 27 27 25 25 23 19 20 21 24 21 25 23 21 21 22 21 18 21 17 17 15 10
6 6 9 13 12 9 10 13 7 10 12 11 21 25 25 26 27 27 28 27 29 29 30 30 29 30 29 28 28 29 27 25 23 24 21 20 25 26 25 20 24 27 23 18 15 19 16 14 16
11 12 10 8 9 10 6 5 9 9 4 3 2 11 26 28 29 28 29 29 29 30 30 30 31 31 31 31 31 31 30 26 25 24 25 23 27 29 24 23 30 31 29 29 31 29 26 18 22
18 17 12 5 9 9 4 7 11 4 6 1 7 9 11 21 30 31 31 31 31 31 31 31 31 31 31 33 35 32 30 30 30 31 31 33 31 28 28 31 36 38 35 32 30 23 23 22 27
12 16 21 19 7 6 10 8 5 10 6 6 5 3 8 13 16 27 31 32 32 32 32 34 32 30 30 32 30 32 34 34 29 32 34 34 31 26 29 35 36 38 34 33 27 23 22 25 15
12 5 13 10 12 11 14 13 4 8 8 5 6 5 1 3 5 12 20 26 30 31 31 32 31 30 29 31 31 30 27 25 29 32 34 33 35 32 33 34 32 35 37 34 27 26 25 16 19
10 12 9 8 13 10 10 10 2 4 3 4 5 4 3 1 2 4 7 14 20 23 26 27 28 28 27 26 25 26 26 27 29 34 31 28 31 32 31 32 32 35 38 35 28 23 17 21 16
17 17 18 10 13 12 10 11 5 5 8 1 7 7 3 2 2 4 6 9 13 17 20 22 23 23 23 21 21 23 23 28 30 30 25 27 28 24 26 28 32 31 33 26 24 21 21 15 16
Wind_Direction
282 312 285 258 244 226 260 233 283 336 268 6 312 316 211 54 9 168 102 141 153 153 159 160 165 168 171 172 171 167 164 160 155 148 143 135 128 126 124 122 122 118 113 109 106 100 94 87 81
247 260 251 270 256 261 232 228 164 240 360 32 245 305 278 109 40 38 199 156 170 158 162 164 164 169 171 172 170 167 166 161 154 149 144 136 131 128 126 127 124 117 113 108 105 99 93 87 81
256 255 268 245 243 264 25 28 16 331 299 251 213 84 29 70 336 5 314 172 185 155 160 165 169 171 172 174 172 169 166 159 154 150 144 138 134 132 129 126 123 118 112 107 104 99 94 87 78
253 227 235 251 272 255 303 21 341 268 198 228 266 101 104 237 280 295 321 198 173 171 158 169 171 173 174 174 172 168 164 160 155 151 144 141 138 134 130 127 123 119 115 110 107 100 95 86 77
245 263 264 245 278 317 295 298 302 300 303 335 254 126 103 119 125 251 270 196 181 161 172 171 170 173 173 172 171 169 165 161 156 152 147 144 140 134 132 129 126 122 117 113 107 97 92 82 76
251 258 255 268 126 186 227 344 311 311 295 203 250 118 113 140 182 174 195 178 170 156 171 173 171 172 174 174 172 167 161 158 158 153 151 148 144 139 135 129 125 122 117 111 103 91 90 80 75
260 277 298 270 6 23 59 0 304 319 250 204 333 80 74 179 186 216 181 187 179 177 164 164 165 171 171 169 166 162 162 166 157 158 152 147 142 138 135 129 127 126 121 109 104 91 82 81 69
286 269 236 323 338 218 39 294 302 276 351 10 329 162 174 187 175 187 197 180 183 178 172 169 169 165 166 163 161 163 163 159 158 155 148 145 140 141 136 133 131 129 127 114 102 90 80 76 59
260 260 275 56 346 345 34 325 128 342 276 305 14 29 148 165 161 188 151 165 176 166 174 168 168 163 155 149 160 159 158 155 151 151 146 144 139 133 134 141 136 134 131 121 109 93 72 65 49
250 258 22 23 355 316 10 325 347 270 183 144 69 100 133 143 147 140 147 173 182 165 169 176 172 161 158 154 157 155 162 154 162 152 146 136 132 146 156 148 139 138 138 130 114 92 72 64 35
223 286 8 21 13 322 50 330 304 307 11 344 130 130 128 126 134 144 138 143 165 165 167 172 173 166 165 159 160 162 155 164 168 151 147 153 161 176 163 156 152 154 151 147 125 82 95 136 99
258 240 321 339 345 307 202 246 334 21 73 139 125 135 128 130 131 148 161 162 164 166 169 167 172 171 169 164 158 162 169 167 160 159 178 172 180 164 169 157 165 164 145 153 162 166 132 4 355
244 282 298 324 266 239 303 203 175 85 113 118 137 127 138 125 118 117 156 161 162 152 155 161 162 162 157 152 151 150 153 150 171 186 190 208 183 183 184 183 173 169 177 165 159 139 134 61 79
5 290 284 264 214 181 196 175 220 136 122 124 118 112 116 106 108 116 130 157 163 161 161 154 153 162 161 147 150 152 146 163 179 197 201 191 191 200 196 186 176 176 170 176 164 165 157 162 197
285 275 202 216 197 162 50 321 116 147 138 117 123 126 117 129 140 125 138 144 166 161 161 161 156 162 156 152 166 163 162 187 200 202 212 200 200 203 192 186 183 182 180 176 183 192 181 176 189
252 239 299 301 201 189 109 283 136 153 150 137 138 148 149 151 143 141 133 136 142 157 162 158 159 163 159 158 170 194 198 201 200 201 217 198 204 206 196 197 191 190 188 181 186 176 193 196 200
218 259 143 230 214 256 145 251 137 152 159 151 153 163 159 160 160 155 153 152 156 152 159 163 164 172 174 182 188 203 205 204 201 207 222 208 207 205 198 206 200 205 195 194 197 199 203 212 208
274 208 219 148 292 230 286 58 133 158 169 163 167 170 170 171 167 166 163 167 163 167 167 170 178 179 188 193 193 203 202 205 206 213 208 217 207 209 207 212 212 215 203 205 206 206 210 203 210
297 302 273 136 236 272 260 140 256 159 181 175 197 175 182 178 173 174 175 178 177 178 179 186 185 190 197 200 198 206 207 208 217 216 203 219 204 218 223 217 227 219 207 212 210 208 228 220 224
250 262 258 168 132 261 262 249 179 157 190 186 196 187 198 185 180 183 184 187 192 192 191 195 198 198 202 204 206 210 210 210 217 222 209 216 214 225 235 217 227 225 211 209 222 217 217 215 220
233 250 198 280 252 246 271 242 183 174 191 199 201 198 198 197 191 191 193 194 196 199 200 202 204 206 208 209 210 210 211 213 218 227 223 222 228 227 225 230 225 222 211 221 231 238 222 219 238
225 231 200 253 262 297 267 288 279 180 193 199 203 208 200 201 199 197 200 201 203 202 202 204 207 208 210 209 210 210 212 213 218 220 223 226 230 237 222 228 226 224 219 219 233 230 224 218 230
261 233 210 273 279 290 217 256 182 263 186 202 208 206 209 205 204 202 203 205 207 206 207 207 208 210 211 213 210 214 217 217 220 224 232 233 227 235 227 227 230 226 225 223 231 223 226 223 257
221 211 229 247 253 250 215 247 171 205 217 201 196 199 209 209 209 208 206 206 209 210 211 211 211 214 214 215 218 213 220 219 223 225 226 225 222 236 227 221 233 234 232 224 226 225 232 232 271
213 223 228 234 229 236 255 239 261 267 186 167 279 207 202 211 215 211 209 208 209 209 211 212 214 216 216 217 219 221 220 223 226 231 232 223 233 241 243 260 259 246 235 231 245 249 248 253 271
209 230 229 207 267 222 211 236 244 278 61 282 271 263 266 214 214 219 218 215 215 213 212 213 215 216 215 218 221 222 225 223 226 234 238 246 259 261 270 272 257 249 245 245 247 242 262 246 292
239 217 239 262 298 278 234 211 230 210 230 219 247 270 234 222 228 222 224 223 222 218 216 215 217 219 218 223 223 230 230 228 227 237 241 254 262 259 264 263 250 246 241 248 242 245 234 269 254
251 259 225 228 221 244 240 249 247 167 220 166 254 226 291 183 212 230 231 228 225 224 222 218 220 221 224 225 227 222 228 233 230 239 250 250 253 254 253 254 254 241 245 247 251 242 230 246 231
193 232 230 245 239 236 255 232 243 127 256 258 286 202 206 102 139 186 204 216 221 220 220 220 222 223 223 224 224 229 232 231 231 241 251 247 248 252 250 257 255 245 246 251 248 233 240 231 221
225 216 208 224 218 218 254 261 169 242 274 216 267 192 201 213 207 175 182 187 195 202 206 210 216 218 218 217 219 230 239 234 237 249 263 255 257 254 255 251 254 247 244 244 239 229 225 227 224
Height
1505 1505 1507 1504 1500 1482 1473 1461 1450 1457 1458 1461 1456 1447 1457 1471 1483 1485 1487 1486 1488 1492 1497 1501 1506 1509 1514 1519 1523 1527 1531 1534 1536 1539 1541 1543 1545 1549 1552 1554 1556 1557 1559 1561 1562 1563 1564 1567 1566
1507 1507 1506 1497 1493 1477 1461 1451 1461 1462 1462 1468 1474 1470 1464 1477 1484 1486 1493 1489 1485 1486 1497 1500 1505 1510 1515 1520 1524 1528 1532 1535 1538 1541 1543 1546 1547 1551 1554 1557 1559 1561 1562 1563 1567 1565 1567 1569 1569
1504 1506 1501 1486 1478 1474 1469 1458 1462 1468 1473 1474 1471 1477 1481 1483 1486 1489 1489 1488 1486 1494 1501 1498 1504 1510 1516 1521 1525 1528 1533 1536 1539 1543 1546 1549 1551 1553 1556 1559 1561 1563 1566 1566 1569 1569 1570 1572 1571
1506 1502 1497 1488 1477 1463 1465 1465 1470 1470 1471 1473 1468 1471 1482 1485 1485 1488 1494 1492 1485 1488 1496 1499 1503 1511 1516 1521 1526 1529 1534 1537 1541 1545 1548 1552 1553 1555 1558 1561 1563 1564 1568 1569 1572 1572 1572 1575 1574
1504 1496 1485 1477 1471 1468 1470 1471 1473 1473 1468 1470 1470 1472 1485 1484 1485 1485 1482 1478 1474 1486 1495 1502 1507 1513 1518 1523 1526 1530 1534 1540 1543 1547 1550 1553 1555 1558 1560 1562 1565 1567 1569 1572 1573 1574 1575 1577 1577
1497 1491 1480 1470 1465 1469 1470 1472 1473 1474 1474 1473 1468 1476 1490 1482 1490 1494 1489 1487 1485 1490 1498 1503 1509 1514 1519 1523 1527 1531 1535 1541 1547 1550 1552 1554 1557 1560 1562 1563 1566 1568 1572 1574 1575 1576 1577 1577 1578
1495 1484 1476 1473 1471 1485 1471 1476 1474 1476 1473 1464 1453 1474 1485 1486 1489 1488 1486 1487 1490 1496 1497 1506 1510 1516 1520 1524 1528 1533 1537 1544 1549 1553 1554 1557 1560 1563 1566 1566 1567 1570 1573 1576 1577 1577 1578 1579 1580
1496 1486 1475 1472 1474 1497 1476 1476 1479 1479 1469 1460 1476 1476 1488 1490 1492 1493 1494 1494 1498 1498 1501 1507 1513 1517 1522 1526 1531 1535 1538 1545 1551 1555 1559 1561 1563 1566 1567 1568 1570 1572 1575 1577 1578 1578 1579 1580 1580
1497 1482 1481 1473 1474 1475 1476 1477 1474 1481 1481 1481 1484 1484 1486 1490 1493 1494 1496 1497 1497 1501 1502 1506 1512 1517 1523 1529 1538 1541 1544 1547 1553 1559 1562 1565 1566 1569 1570 1570 1572 1574 1577 1578 1579 1579 1579 1580 1580
1491 1476 1475 1476 1479 1478 1478 1478 1476 1477 1474 1481 1487 1489 1489 1493 1495 1497 1497 1499 1502 1503 1505 1508 1513 1517 1521 1528 1534 1540 1545 1550 1558 1563 1564 1568 1568 1570 1572 1573 1574 1576 1577 1579 1579 1579 1581 1581 1583
1485 1481 1477 1478 1485 1481 1483 1480 1480 1473 1475 1473 1485 1491 1493 1496 1497 1498 1499 1501 1504 1504 1504 1506 1507 1512 1516 1526 1531 1535 1549 1557 1559 1562 1565 1568 1569 1573 1574 1575 1575 1577 1578 1579 1580 1580 1583 1582 1583
1487 1481 1481 1480 1483 1481 1478 1483 1483 1480 1483 1490 1493 1494 1495 1497 1500 1501 1501 1503 1505 1507 1509 1511 1514 1519 1526 1530 1537 1547 1551 1553 1558 1563 1567 1568 1572 1575 1576 1576 1576 1577 1578 1579 1581 1580 1580 1581 1580
1486 1482 1481 1479 1482 1482 1480 1478 1477 1488 1493 1494 1496 1497 1499 1501 1503 1503 1504 1504 1506 1508 1510 1514 1517 1522 1528 1532 1539 1547 1551 1556 1562 1565 1567 1571 1574 1576 1578 1578 1578 1578 1579 1578 1580 1578 1581 1581 1580
1484 1484 1480 1478 1478 1480 1483 1482 1483 1489 1491 1495 1497 1500 1501 1504 1506 1508 1508 1508 1509 1511 1515 1518 1521 1527 1531 1536 1543 1549 1553 1558 1563 1565 1568 1570 1573 1575 1577 1576 1576 1578 1578 1580 1579 1580 1581 1582 1583
1487 1481 1474 1475 1476 1477 1483 1492 1481 1489 1490 1494 1499 1501 1504 1505 1506 1511 1512 1511 1512 1516 1519 1523 1529 1535 1540 1544 1549 1554 1557 1560 1564 1566 1568 1571 1573 1572 1574 1576 1576 1577 1578 1578 1579 1579 1580 1581 1582
1481 1473 1480 1479 1474 1474 1486 1500 1481 1487 1487 1491 1496 1502 1504 1507 1510 1513 1514 1515 1517 1519 1524 1531 1535 1540 1542 1547 1550 1555 1558 1561 1564 1566 1565 1567 1569 1570 1571 1574 1574 1575 1575 1576 1577 1578 1580 1580 1581
1472 1476 1484 1476 1471 1468 1478 1495 1478 1484 1485 1489 1492 1497 1501 1506 1509 1512 1514 1517 1519 1521 1526 1532 1536 1541 1544 1549 1552 1555 1557 1558 1562 1564 1563 1565 1568 1568 1569 1572 1572 1571 1573 1574 1576 1576 1578 1576 1578
1471 1468 1464 1474 1471 1470 1468 1463 1472 1481 1484 1486 1490 1496 1500 1503 1508 1512 1515 1520 1523 1525 1528 1533 1537 1541 1544 1546 1549 1553 1556 1557 1560 1560 1562 1564 1566 1565 1566 1570 1567 1569 1571 1572 1574 1574 1574 1575 1574
1470 1466 1465 1466 1473 1467 1463 1469 1465 1475 1482 1487 1487 1493 1496 1501 1506 1511 1515 1518 1522 1525 1528 1532 1536 1539 1542 1544 1547 1550 1551 1554 1557 1556 1559 1561 1563 1562 1563 1566 1564 1566 1568 1572 1571 1569 1570 1571 1569
1473 1471 1465 1463 1463 1468 1460 1461 1475 1470 1477 1481 1485 1490 1493 1498 1502 1508 1512 1515 1518 1522 1525 1530 1533 1536 1539 1541 1543 1546 1549 1552 1554 1554 1556 1558 1558 1558 1560 1563 1560 1563 1565 1566 1565 1567 1568 1569 1567
1472 1469 1469 1467 1465 1462 1461 1459 1460 1462 1471 1477 1481 1483 1488 1492 1497 1502 1507 1510 1514 1518 1521 1525 1529 1532 1535 1538 1540 1543 1545 1548 1549 1549 1550 1552 1553 1554 1556 1557 1557 1560 1562 1559 1561 1562 1563 1565 1564
1470 1462 1469 1468 1470 1473 1459 1478 1462 1455 1464 1470 1475 1479 1482 1486 1491 1496 1501 1505 1508 1512 1516 1520 1524 1527 1530 1533 1535 1537 1539 1541 1543 1546 1547 1547 1548 1549 1551 1553 1553 1555 1556 1556 1557 1558 1558 1559 1562
1466 1467 1466 1465 1464 1463 1462 1470 1466 1454 1459 1461 1467 1473 1477 1481 1484 1488 1493 1497 1502 1506 1509 1513 1518 1521 1525 1527 1530 1532 1535 1536 1539 1540 1541 1542 1544 1544 1546 1549 1548 1550 1551 1552 1552 1553 1554 1555 1557
1461 1467 1469 1466 1465 1477 1465 1462 1474 1453 1449 1448 1452 1462 1470 1474 1477 1481 1485 1491 1496 1501 1504 1508 1512 1515 1519 1521 1523 1526 1528 1531 1534 1534 1535 1538 1537 1537 1541 1544 1544 1543 1544 1546 1550 1550 1550 1551 1554
1463 1467 1479 1483 1475 1478 1453 1462 1454 1461 1442 1448 1452 1453 1459 1467 1472 1475 1479 1483 1488 1493 1497 1502 1505 1508 1511 1514 1516 1518 1521 1525 1528 1529 1528 1532 1532 1531 1534 1537 1539 1536 1538 1540 1538 1543 1544 1545 1549
1459 1460 1470 1505 1497 1469 1459 1467 1451 1438 1443 1449 1453 1454 1455 1456 1463 1468 1471 1476 1481 1485 1490 1494 1497 1500 1504 1504 1507 1511 1513 1517 1521 1522 1523 1523 1525 1529 1525 1530 1529 1531 1533 1533 1535 1536 1540 1542 1542
1452 1456 1450 1459 1462 1470 1459 1447 1440 1441 1443 1448 1449 1452 1452 1455 1458 1461 1465 1469 1474 1478 1483 1486 1491 1495 1498 1499 1505 1507 1508 1509 1514 1514 1516 1517 1517 1516 1519 1522 1522 1525 1528 1528 1527 1530 1534 1538 1536
1450 1444 1460 1458 1487 1485 1459 1449 1449 1444 1442 1445 1448 1448 1451 1454 1457 1459 1460 1462 1466 1471 1476 1481 1485 1488 1492 1494 1497 1497 1503 1503 1507 1507 1507 1509 1512 1512 1511 1512 1515 1518 1519 1520 1521 1523 1527 1530 1531
1451 1451 1448 1448 1452 1472 1469 1454 1435 1437 1441 1443 1445 1450 1452 1454 1455 1457 1458 1460 1463 1466 1471 1475 1480 1483 1486 1490 1492 1493 1496 1498 1500 1500 1502 1502 1503 1506 1507 1507 1508 1510 1512 1513 1516 1520 1524 1525 1527
1432 1438 1441 1455 1461 1457 1457 1454 1436 1438 1440 1443 1446 1448 1451 1453 1454 1456 1458 1459 1461 1464 1467 1471 1475 1478 1482 1485 1488 1490 1491 1492 1494 1494 1496 1497 1498 1500 1501 1501 1501 1503 1507 1510 1512 1517 1519 1525 1522